When you browse on this site, cookies collect data to enhance your experience and personalize the content and advertising you see.
Visit our Privacy Policy to learn more. By continuing to use the site, you agree to this use of cookies and data.
  • In Schweiz
  • Länderverzeichnis
  • Für 7 Tage
  • Wassertemperatur
  • Wetterkarte
  • Widgets
  • user-avatar
    Anmelden

    Stündliche Wetter Julara

    Heute, 4 Juni, Donnerstag

    Zeit Temperatur Niederschläge Wind Luftdruck Luftfeuchtigkeit
    00:00 +8°C° 0 mm 4 m/S 725 mmHg 64%
    01:00 +8°C° 0 mm 4 m/S 725 mmHg 68%
    02:00 +7°C° 0 mm 4 m/S 725 mmHg 73%
    03:00 +7°C° 0 mm 4 m/S 725 mmHg 78%
    04:00 +6°C° 0 mm 4 m/S 725 mmHg 80%
    05:00 +6°C° 0 mm 4 m/S 725 mmHg 82%
    06:00 +5°C° 0 mm 3 m/S 725 mmHg 84%
    07:00 +7°C° 0 mm 4 m/S 725 mmHg 76%
    08:00 +10°C° 0 mm 4 m/S 726 mmHg 67%
    09:00 +12°C° 0 mm 5 m/S 726 mmHg 56%
    10:00 +13°C° 0 mm 5 m/S 726 mmHg 49%
    11:00 +15°C° 0 mm 6 m/S 725 mmHg 42%
    12:00 +17°C° 0 mm 6 m/S 725 mmHg 35%
    13:00 +19°C° 0 mm 6 m/S 724 mmHg 32%
    14:00 +20°C° 0 mm 5 m/S 724 mmHg 29%
    15:00 +21°C° 0 mm 5 m/S 723 mmHg 25%
    16:00 +19°C° 0 mm 5 m/S 723 mmHg 29%
    17:00 +15°C° 0 mm 4 m/S 723 mmHg 32%
    18:00 +13°C° 0 mm 4 m/S 723 mmHg 36%
    19:00 +13°C° 0 mm 4 m/S 724 mmHg 39%
    20:00 +12°C° 0 mm 4 m/S 724 mmHg 41%
    21:00 +11°C° 0 mm 4 m/S 724 mmHg 44%
    22:00 +10°C° 0 mm 4 m/S 724 mmHg 49%
    23:00 +8°C° 0 mm 4 m/S 724 mmHg 53%

    Morgen, 5 Juni, Freitag

    Zeit Temperatur Niederschläge Wind Luftdruck Luftfeuchtigkeit
    00:00 +7°C° 0 mm 4 m/S 724 mmHg 57%
    01:00 +7°C° 0 mm 4 m/S 724 mmHg 61%
    02:00 +6°C° 0 mm 4 m/S 723 mmHg 66%
    03:00 +5°C° 0 mm 3 m/S 723 mmHg 70%
    04:00 +5°C° 0 mm 3 m/S 723 mmHg 74%
    05:00 +5°C° 0 mm 3 m/S 724 mmHg 77%
    06:00 +4°C° 0 mm 3 m/S 724 mmHg 81%
    07:00 +6°C° 0 mm 4 m/S 724 mmHg 75%
    08:00 +8°C° 0 mm 4 m/S 725 mmHg 68%
    09:00 +10°C° 0 mm 5 m/S 725 mmHg 62%
    10:00 +13°C° 0 mm 5 m/S 725 mmHg 54%
    11:00 +15°C° 0 mm 5 m/S 724 mmHg 46%
    12:00 +17°C° 0 mm 5 m/S 724 mmHg 37%
    13:00 +19°C° 0 mm 4 m/S 723 mmHg 34%
    14:00 +20°C° 0 mm 4 m/S 723 mmHg 30%
    15:00 +21°C° 0 mm 4 m/S 722 mmHg 26%
    16:00 +19°C° 0 mm 4 m/S 722 mmHg 31%
    17:00 +17°C° 0 mm 4 m/S 722 mmHg 35%
    18:00 +14°C° 0 mm 3 m/S 722 mmHg 39%
    19:00 +13°C° 0 mm 3 m/S 722 mmHg 41%
    20:00 +12°C° 0 mm 3 m/S 723 mmHg 42%
    21:00 +11°C° 0 mm 4 m/S 723 mmHg 44%
    22:00 +10°C° 0 mm 4 m/S 723 mmHg 45%
    23:00 +8°C° 0 mm 4 m/S 723 mmHg 47%

    übermorgen, 6 Juni, Samstag

    Zeit Temperatur Niederschläge Wind Luftdruck Luftfeuchtigkeit
    00:00 +8°C° 0 mm 4 m/S 723 mmHg 49%
    01:00 +7°C° 0 mm 4 m/S 722 mmHg 51%
    02:00 +6°C° 0 mm 4 m/S 722 mmHg 53%
    03:00 +5°C° 0 mm 4 m/S 722 mmHg 55%
    04:00 +5°C° 0 mm 3 m/S 722 mmHg 56%
    05:00 +5°C° 0 mm 3 m/S 722 mmHg 57%
    06:00 +4°C° 0 mm 3 m/S 723 mmHg 59%
    07:00 +7°C° 0 mm 3 m/S 723 mmHg 52%
    08:00 +8°C° 0 mm 4 m/S 723 mmHg 45%
    09:00 +11°C° 0 mm 4 m/S 723 mmHg 38%
    10:00 +13°C° 0 mm 4 m/S 723 mmHg 33%
    11:00 +16°C° 0 mm 5 m/S 723 mmHg 28%
    12:00 +19°C° 0 mm 5 m/S 723 mmHg 23%
    13:00 +20°C° 0 mm 5 m/S 722 mmHg 21%
    14:00 +21°C° 0 mm 5 m/S 722 mmHg 20%
    15:00 +22°C° 0 mm 5 m/S 721 mmHg 18%
    16:00 +19°C° 0 mm 4 m/S 721 mmHg 21%
    17:00 +17°C° 0 mm 4 m/S 721 mmHg 24%
    18:00 +14°C° 0 mm 3 m/S 721 mmHg 27%
    19:00 +13°C° 0 mm 4 m/S 722 mmHg 30%
    20:00 +11°C° 0 mm 4 m/S 722 mmHg 32%
    21:00 +9°C° 0 mm 5 m/S 722 mmHg 35%
    22:00 +9°C° 0 mm 5 m/S 722 mmHg 37%
    23:00 +8°C° 0 mm 5 m/S 722 mmHg 39%

    7 Juni, Sonntag

    Zeit Temperatur Niederschläge Wind Luftdruck Luftfeuchtigkeit
    00:00 +7°C° 0 mm 4 m/S 723 mmHg 40%
    01:00 +6°C° 0 mm 5 m/S 722 mmHg 43%
    02:00 +6°C° 0 mm 5 m/S 722 mmHg 46%
    03:00 +5°C° 0 mm 5 m/S 722 mmHg 48%
    04:00 +5°C° 0 mm 4 m/S 722 mmHg 51%
    05:00 +4°C° 0 mm 4 m/S 722 mmHg 53%
    06:00 +4°C° 0 mm 4 m/S 722 mmHg 55%
    07:00 +6°C° 0 mm 5 m/S 722 mmHg 53%
    08:00 +7°C° 0 mm 6 m/S 723 mmHg 51%
    09:00 +9°C° 0 mm 6 m/S 723 mmHg 49%
    10:00 +13°C° 0 mm 6 m/S 722 mmHg 41%
    11:00 +15°C° 0 mm 6 m/S 722 mmHg 34%
    12:00 +17°C° 0 mm 6 m/S 722 mmHg 26%
    13:00 +19°C° 0 mm 6 m/S 721 mmHg 24%
    14:00 +20°C° 0 mm 6 m/S 721 mmHg 22%
    15:00 +21°C° 0 mm 6 m/S 720 mmHg 19%
    16:00 +19°C° 0 mm 5 m/S 720 mmHg 23%
    17:00 +15°C° 0 mm 5 m/S 720 mmHg 26%
    18:00 +13°C° 0 mm 4 m/S 720 mmHg 29%
    19:00 +12°C° 0 mm 4 m/S 721 mmHg 33%
    20:00 +11°C° 0 mm 4 m/S 721 mmHg 36%
    21:00 +9°C° 0 mm 5 m/S 722 mmHg 39%
    22:00 +8°C° 0 mm 5 m/S 722 mmHg 44%
    23:00 +7°C° 0 mm 5 m/S 722 mmHg 49%

    8 Juni, Montag

    Zeit Temperatur Niederschläge Wind Luftdruck Luftfeuchtigkeit
    00:00 +7°C° 0 mm 5 m/S 722 mmHg 54%
    01:00 +6°C° 0 mm 5 m/S 722 mmHg 58%
    02:00 +6°C° 0 mm 5 m/S 722 mmHg 62%
    03:00 +5°C° 0 mm 5 m/S 722 mmHg 66%
    04:00 +5°C° 0 mm 4 m/S 722 mmHg 67%
    05:00 +4°C° 0 mm 4 m/S 722 mmHg 68%
    06:00 +4°C° 0 mm 4 m/S 722 mmHg 69%
    07:00 +6°C° 0 mm 4 m/S 723 mmHg 63%
    08:00 +7°C° 0 mm 5 m/S 723 mmHg 57%
    09:00 +9°C° 0 mm 5 m/S 723 mmHg 51%
    10:00 +13°C° 0 mm 5 m/S 723 mmHg 45%
    11:00 +15°C° 0 mm 5 m/S 723 mmHg 39%
    12:00 +19°C° 0 mm 5 m/S 722 mmHg 33%
    13:00 +20°C° 0 mm 5 m/S 722 mmHg 31%
    14:00 +20°C° 0 mm 4 m/S 721 mmHg 29%
    15:00 +21°C° 0 mm 4 m/S 721 mmHg 26%
    16:00 +19°C° 0 mm 4 m/S 721 mmHg 30%
    17:00 +17°C° 0 mm 4 m/S 721 mmHg 34%
    18:00 +14°C° 0 mm 3 m/S 721 mmHg 38%
    19:00 +13°C° 0 mm 4 m/S 721 mmHg 41%
    20:00 +12°C° 0 mm 4 m/S 722 mmHg 44%
    21:00 +10°C° 0 mm 5 m/S 722 mmHg 47%
    22:00 +9°C° 0 mm 5 m/S 722 mmHg 49%
    23:00 +10°C° 0 mm 4 m/S 722 mmHg 51%

    9 Juni, Dienstag

    Zeit Temperatur Niederschläge Wind Luftdruck Luftfeuchtigkeit
    00:00 +8°C° 0 mm 4 m/S 722 mmHg 54%
    01:00 +7°C° 0 mm 4 m/S 722 mmHg 56%
    02:00 +7°C° 0 mm 4 m/S 722 mmHg 58%
    03:00 +6°C° 0 mm 4 m/S 722 mmHg 60%
    04:00 +6°C° 0 mm 4 m/S 723 mmHg 61%
    05:00 +5°C° 0 mm 4 m/S 723 mmHg 63%
    06:00 +5°C° 0 mm 4 m/S 723 mmHg 64%
    07:00 +6°C° 0 mm 4 m/S 723 mmHg 58%
    08:00 +8°C° 0 mm 5 m/S 724 mmHg 52%
    09:00 +10°C° 0 mm 5 m/S 724 mmHg 45%
    10:00 +13°C° 0 mm 5 m/S 724 mmHg 40%
    11:00 +16°C° 0 mm 5 m/S 723 mmHg 35%
    12:00 +19°C° 0 mm 4 m/S 723 mmHg 30%
    13:00 +20°C° 0 mm 4 m/S 723 mmHg 29%
    14:00 +21°C° 0 mm 3 m/S 722 mmHg 27%
    15:00 +21°C° 0 mm 3 m/S 722 mmHg 26%
    16:00 +19°C° 0 mm 3 m/S 722 mmHg 29%
    17:00 +17°C° 0 mm 3 m/S 722 mmHg 33%
    18:00 +14°C° 0 mm 3 m/S 722 mmHg 37%
    19:00 +13°C° 0 mm 3 m/S 722 mmHg 39%
    20:00 +12°C° 0 mm 4 m/S 723 mmHg 40%
    21:00 +11°C° 0 mm 4 m/S 723 mmHg 42%
    22:00 +11°C° 0 mm 4 m/S 723 mmHg 45%
    23:00 +10°C° 0 mm 4 m/S 724 mmHg 47%
    Mehr zeigen